Location: Bremen
(53.0830°N, 8.8000°E)
Time: 23:23:24
(UTC+02:00)

X-37B - Visible Passes

Search period start: 01 August 2021 00:00
Search period end: 11 August 2021 00:00
Orbit: 383 x 392 km, 45.0° (Epoch: 01 July)

Date Brightness Start Highest point End Pass type
(mag) Time Alt. Az. Time Alt. Az. Time Alt. Az.
05 Aug 2.6 04:52:30 10° SSW 04:54:34 16° SSE 04:56:39 10° SE visible
06 Aug 2.8 03:56:29 13° SSE 03:56:29 13° SSE 03:58:02 10° SE visible
07 Aug 2.4 04:32:55 15° SSW 04:34:14 18° S 04:36:33 10° SE visible
08 Aug 2.8 03:37:05 14° SE 03:37:05 14° SE 03:38:10 10° SE visible
08 Aug 2.3 05:09:42 10° SW 05:12:03 19° S 05:14:25 10° SE visible
09 Aug 2.2 04:13:38 19° S 04:13:53 19° S 04:16:17 10° SE visible
10 Aug 3.3 03:18:01 10° SE 03:18:01 10° SE 03:18:03 10° SE visible
10 Aug 2.4 04:50:18 13° SW 04:51:43 17° S 04:53:53 10° SSE visible
